Location: Unspecified
(0.0000°N, 0.0000°E)
Time: 08:19:21
(UTC+00:00)

N. Korean satellite - Visible Passes

Search period start: 28 April 2017 00:00
Search period end: 08 May 2017 00:00
Orbit: 462 x 518 km, 97.2° (Epoch: 26 April)

Date Brightness Start Highest point End Pass type
(mag) Time Alt. Az. Time Alt. Az. Time Alt. Az.
28 Apr 9.4 19:22:50 10° SW 19:25:11 17° W 19:27:31 10° WNW visible
29 Apr 7.7 18:59:13 10° S 19:02:30 41° W 19:05:47 10° NNW visible
30 Apr 6.4 18:36:22 10° SSE 18:39:48 70° E 18:43:14 10° N visible
02 May 9.5 19:25:34 10° SW 19:27:42 16° W 19:29:51 10° WNW visible
03 May 8.0 19:01:46 10° S 19:05:00 37° W 19:08:14 10° NNW visible
04 May 6.4 18:38:49 10° SSE 18:42:17 80° ENE 18:45:45 10° N visible
06 May 9.5 19:28:12 10° SW 19:30:08 14° W 19:32:03 10° WNW visible
07 May 8.2 19:04:14 10° SSW 19:07:23 33° W 19:10:35 10° NW visible
